Time,TemperatureF,DewpointF,PressureIn,WindDirection,WindDirectionDegrees,WindSpeedMPH,WindSpeedGustMPH,Humidity,HourlyPrecipIn,Conditions,Clouds,dailyrainin,SoftwareType,DateUTC
2013-01-09 00:25:00,31.6,26.5,29.40,SSE,157,6.7,6.7,81,0.00,,,0.00,WUHU21623XXSP,2013-01-09 05:25:00,
2013-01-09 00:26:00,31.6,26.5,29.40,SSE,157,6.7,6.7,81,0.00,,,0.00,WUHU21623XXSP,2013-01-09 05:26:00,
2013-01-09 00:31:00,31.6,26.5,29.39,SSW,202,2.5,6.7,81,0.00,,,0.00,WUHU21623XXSP,2013-01-09 05:31:00,
2013-01-09 00:36:00,31.8,26.7,29.39,South,180,3.6,6.7,81,0.00,,,0.00,WUHU21623XXSP,2013-01-09 05:36:00,
2013-01-09 00:41:00,32.2,27.3,29.39,South,180,7.6,7.6,82,0.00,,,0.00,WUHU21623XXSP,2013-01-09 05:41:00,
2013-01-09 00:46:00,32.4,27.5,29.39,South,180,1.6,7.6,82,0.00,,,0.00,WUHU21623XXSP,2013-01-09 05:46:00,
2013-01-09 00:51:00,32.5,27.7,29.39,South,180,8.1,8.1,82,0.00,,,0.00,WUHU21623XXSP,2013-01-09 05:51:00,
2013-01-09 00:56:00,32.9,28.0,29.38,South,180,2.9,8.1,82,0.00,,,0.00,WUHU21623XXSP,2013-01-09 05:56:00,
2013-01-09 01:01:00,32.9,28.0,29.38,South,180,2.9,3.6,82,0.00,,,0.00,WUHU21623XXSP,2013-01-09 06:01:00,
2013-01-09 01:06:00,33.4,28.5,29.37,South,180,4.5,4.5,82,0.00,,,0.00,WUHU21623XXSP,2013-01-09 06:06:00,
2013-01-09 01:11:00,33.6,28.5,29.38,SSW,202,3.6,4.5,82,0.00,,,0.00,WUHU21623XXSP,2013-01-09 06:11:00,
2013-01-09 01:16:00,34.2,28.8,29.38,SSW,202,3.6,3.6,82,0.00,,,0.00,WUHU21623XXSP,2013-01-09 06:16:00,
2013-01-09 01:21:00,34.2,29.2,29.38,SSW,202,5.8,5.8,82,0.00,,,0.00,WUHU21623XXSP,2013-01-09 06:21:00,
2013-01-09 01:26:00,34.5,29.5,29.37,SSE,157,6.3,6.3,82,0.00,,,0.00,WUHU21623XXSP,2013-01-09 06:26:00,
2013-01-09 01:31:00,34.9,29.7,29.37,South,180,0.0,6.3,82,0.00,,,0.00,WUHU21623XXSP,2013-01-09 06:31:00,
2013-01-09 01:36:00,34.9,29.9,29.36,South,180,3.1,3.1,82,0.00,,,0.00,WUHU21623XXSP,2013-01-09 06:36:00,
2013-01-09 01:41:00,35.2,30.2,29.36,South,180,2.2,3.8,82,0.00,,,0.00,WUHU21623XXSP,2013-01-09 06:41:00,
2013-01-09 01:46:00,35.2,29.9,29.36,South,180,2.2,3.8,81,0.00,,,0.00,WUHU21623XXSP,2013-01-09 06:46:00,
2013-01-09 01:51:00,35.4,30.1,29.36,South,180,0.0,6.9,81,0.00,,,0.00,WUHU21623XXSP,2013-01-09 06:51:00,
2013-01-09 01:56:00,35.8,30.3,29.36,South,180,0.0,6.9,81,0.00,,,0.00,WUHU21623XXSP,2013-01-09 06:56:00,
2013-01-09 02:01:00,35.8,30.5,29.36,SE,135,6.3,6.3,81,0.00,,,0.00,WUHU21623XXSP,2013-01-09 07:01:00,
2013-01-09 02:06:00,36.0,30.7,29.37,South,180,4.7,6.3,81,0.00,,,0.00,WUHU21623XXSP,2013-01-09 07:06:00,
2013-01-09 02:11:00,36.1,30.8,29.37,SW,225,1.6,4.7,81,0.00,,,0.00,WUHU21623XXSP,2013-01-09 07:11:00,
2013-01-09 02:16:00,36.3,31.0,29.38,SSW,202,4.0,4.0,81,0.00,,,0.00,WUHU21623XXSP,2013-01-09 07:16:00,
2013-01-09 02:21:00,36.3,31.0,29.38,South,180,2.9,4.0,81,0.00,,,0.00,WUHU21623XXSP,2013-01-09 07:21:00,
2013-01-09 02:26:00,36.3,31.0,29.37,South,180,2.9,2.9,81,0.00,,,0.00,WUHU21623XXSP,2013-01-09 07:26:00,
2013-01-09 02:31:00,36.3,31.0,29.37,South,180,5.1,5.1,81,0.00,,,0.00,WUHU21623XXSP,2013-01-09 07:31:00,
2013-01-09 02:36:00,36.5,31.0,29.37,SE,135,3.1,5.1,81,0.00,,,0.00,WUHU21623XXSP,2013-01-09 07:36:00,
2013-01-09 02:41:00,36.5,31.2,29.37,South,180,9.6,9.6,81,0.00,,,0.00,WUHU21623XXSP,2013-01-09 07:41:00,
2013-01-09 02:47:00,36.5,31.2,29.36,SW,225,0.0,9.6,81,0.00,,,0.00,WUHU21623XXSP,2013-01-09 07:47:00,
2013-01-09 02:52:00,36.7,31.4,29.37,WSW,247,5.4,5.4,81,0.00,,,0.00,WUHU21623XXSP,2013-01-09 07:52:00,
2013-01-09 02:57:00,36.7,31.4,29.37,WSW,247,5.4,5.4,81,0.00,,,0.00,WUHU21623XXSP,2013-01-09 07:57:00,
2013-01-09 03:02:00,37.0,31.7,29.37,WSW,247,2.5,5.4,81,0.00,,,0.00,WUHU21623XXSP,2013-01-09 08:02:00,
2013-01-09 03:07:00,37.0,31.7,29.37,SSE,157,3.4,6.3,81,0.00,,,0.00,WUHU21623XXSP,2013-01-09 08:07:00,
2013-01-09 03:12:00,37.0,31.7,29.37,SSE,157,3.4,6.3,81,0.00,,,0.00,WUHU21623XXSP,2013-01-09 08:12:00,
2013-01-09 03:17:00,37.0,31.7,29.37,SW,225,0.0,3.4,81,0.00,,,0.00,WUHU21623XXSP,2013-01-09 08:17:00,
2013-01-09 03:22:00,37.0,31.7,29.37,SW,225,0.0,0.0,81,0.00,,,0.00,WUHU21623XXSP,2013-01-09 08:22:00,
2013-01-09 03:27:00,37.0,31.7,29.37,SW,225,0.0,0.0,81,0.00,,,0.00,WUHU21623XXSP,2013-01-09 08:27:00,
2013-01-09 03:44:00,38.5,32.6,29.38,SW,225,3.6,3.6,79,0.00,,,0.00,WUHU21623XXSP,2013-01-09 08:44:00,
2013-01-09 03:49:00,38.5,32.6,29.38,SW,225,3.6,3.6,79,0.00,,,0.00,WUHU21623XXSP,2013-01-09 08:49:00,
2013-01-09 03:54:00,38.5,32.6,29.38,SW,225,3.6,3.6,79,0.00,,,0.00,WUHU21623XXSP,2013-01-09 08:54:00,
2013-01-09 03:59:00,39.0,33.1,29.38,SW,225,3.6,3.6,79,0.00,,,0.00,WUHU21623XXSP,2013-01-09 08:59:00,
2013-01-09 04:04:00,39.0,33.1,29.38,SW,225,3.6,3.6,79,0.00,,,0.00,WUHU21623XXSP,2013-01-09 09:04:00,
2013-01-09 04:09:00,39.0,33.1,29.38,SW,225,0.0,3.6,79,0.00,,,0.00,WUHU21623XXSP,2013-01-09 09:09:00,
2013-01-09 04:14:00,39.0,33.1,29.38,SW,225,0.0,3.6,79,0.00,,,0.00,WUHU21623XXSP,2013-01-09 09:14:00,
2013-01-09 04:20:00,39.0,32.4,29.38,WSW,247,0.0,0.0,77,0.00,,,0.00,WUHU21623XXSP,2013-01-09 09:20:00,
2013-01-09 04:25:00,39.4,32.8,29.38,West,270,0.0,2.5,77,0.00,,,0.00,WUHU21623XXSP,2013-01-09 09:25:00,
2013-01-09 04:30:00,39.4,32.8,29.39,West,270,0.0,2.5,77,0.00,,,0.00,WUHU21623XXSP,2013-01-09 09:30:00,
2013-01-09 04:35:00,39.4,32.8,29.39,West,270,0.0,0.0,77,0.00,,,0.00,WUHU21623XXSP,2013-01-09 09:35:00,
2013-01-09 04:40:00,39.4,32.8,29.39,West,270,0.0,0.0,77,0.00,,,0.00,WUHU21623XXSP,2013-01-09 09:40:00,
2013-01-09 04:45:00,39.7,32.8,29.39,NNW,337,0.0,0.0,76,0.00,,,0.00,WUHU21623XXSP,2013-01-09 09:45:00,
2013-01-09 04:50:00,39.7,32.8,29.39,NNW,337,0.0,0.0,76,0.00,,,0.00,WUHU21623XXSP,2013-01-09 09:50:00,
2013-01-09 04:55:00,39.7,32.8,29.39,NNW,337,0.0,0.0,76,0.00,,,0.00,WUHU21623XXSP,2013-01-09 09:55:00,
2013-01-09 05:00:00,39.7,32.8,29.39,NNW,337,0.0,0.0,76,0.00,,,0.00,WUHU21623XXSP,2013-01-09 10:00:00,
2013-01-09 05:05:00,39.7,32.8,29.39,NNW,337,0.0,0.0,76,0.00,,,0.00,WUHU21623XXSP,2013-01-09 10:05:00,
2013-01-09 05:10:00,39.7,32.8,29.39,NNW,337,0.0,0.0,76,0.00,,,0.00,WUHU21623XXSP,2013-01-09 10:10:00,
2013-01-09 05:15:00,39.7,32.8,29.39,WSW,247,0.0,0.0,76,0.00,,,0.00,WUHU21623XXSP,2013-01-09 10:15:00,
2013-01-09 05:20:00,39.7,32.8,29.39,WSW,247,0.0,0.0,76,0.00,,,0.00,WUHU21623XXSP,2013-01-09 10:20:00,
2013-01-09 05:25:00,40.5,33.1,29.39,WSW,247,5.4,5.4,75,0.00,,,0.00,WUHU21623XXSP,2013-01-09 10:25:00,
2013-01-09 05:30:00,40.6,33.3,29.39,ENE,67,0.0,5.4,75,0.00,,,0.00,WUHU21623XXSP,2013-01-09 10:30:00,
2013-01-09 05:35:00,40.6,33.6,29.40,South,180,4.5,4.5,76,0.00,,,0.00,WUHU21623XXSP,2013-01-09 10:35:00,
2013-01-09 05:40:00,40.6,33.6,29.40,South,180,4.5,4.5,76,0.00,,,0.00,WUHU21623XXSP,2013-01-09 10:40:00,
2013-01-09 05:45:00,40.6,33.6,29.39,South,180,4.5,4.5,76,0.00,,,0.00,WUHU21623XXSP,2013-01-09 10:45:00,
2013-01-09 05:50:00,40.6,33.6,29.40,South,180,4.5,4.5,76,0.00,,,0.00,WUHU21623XXSP,2013-01-09 10:50:00,
2013-01-09 05:55:00,40.6,33.6,29.39,South,180,4.5,4.5,76,0.00,,,0.00,WUHU21623XXSP,2013-01-09 10:55:00,
2013-01-09 06:00:00,40.5,33.4,29.39,South,180,3.6,4.5,76,0.00,,,0.00,WUHU21623XXSP,2013-01-09 11:00:00,
2013-01-09 06:05:00,40.3,33.6,29.39,West,270,2.5,3.6,77,0.00,,,0.00,WUHU21623XXSP,2013-01-09 11:05:00,
2013-01-09 06:10:00,40.3,33.6,29.40,West,270,2.5,3.6,77,0.00,,,0.00,WUHU21623XXSP,2013-01-09 11:10:00,
2013-01-09 06:15:00,40.1,33.6,29.39,SE,135,0.0,2.5,77,0.00,,,0.00,WUHU21623XXSP,2013-01-09 11:15:00,
2013-01-09 06:20:00,40.1,33.8,29.39,WSW,247,0.0,8.3,78,0.00,,,0.00,WUHU21623XXSP,2013-01-09 11:20:00,
2013-01-09 06:25:00,40.1,33.8,29.40,SW,225,0.0,8.3,78,0.00,,,0.00,WUHU21623XXSP,2013-01-09 11:25:00,
2013-01-09 06:30:00,40.1,33.8,29.41,West,270,3.6,5.8,78,0.00,,,0.00,WUHU21623XXSP,2013-01-09 11:30:00,
2013-01-09 06:35:00,40.3,34.3,29.42,West,270,3.8,5.8,79,0.00,,,0.00,WUHU21623XXSP,2013-01-09 11:35:00,
2013-01-09 06:40:00,40.3,34.3,29.41,WNW,292,0.0,5.8,79,0.00,,,0.00,WUHU21623XXSP,2013-01-09 11:40:00,
2013-01-09 06:45:00,40.1,34.1,29.42,West,270,2.0,3.8,80,0.00,,,0.00,WUHU21623XXSP,2013-01-09 11:45:00,
2013-01-09 06:50:00,39.9,34.3,29.42,West,270,5.8,5.8,80,0.00,,,0.00,WUHU21623XXSP,2013-01-09 11:50:00,
2013-01-09 06:55:00,39.9,34.3,29.42,West,270,5.8,5.8,80,0.00,,,0.00,WUHU21623XXSP,2013-01-09 11:55:00,
2013-01-09 07:00:00,39.9,34.3,29.42,West,270,5.8,5.8,80,0.00,,,0.00,WUHU21623XXSP,2013-01-09 12:00:00,
2013-01-09 07:05:00,39.9,34.3,29.42,West,270,5.8,5.8,80,0.00,,,0.00,WUHU21623XXSP,2013-01-09 12:05:00,
2013-01-09 07:10:00,39.6,34.2,29.42,WSW,247,1.6,5.8,81,0.00,,,0.00,WUHU21623XXSP,2013-01-09 12:10:00,
2013-01-09 07:15:00,39.4,34.1,29.42,SSW,202,2.9,6.3,81,0.00,,,0.00,WUHU21623XXSP,2013-01-09 12:15:00,
2013-01-09 07:20:00,39.4,34.4,29.42,WSW,247,3.8,6.3,82,0.00,,,0.00,WUHU21623XXSP,2013-01-09 12:20:00,
2013-01-09 07:25:00,39.0,34.4,29.43,WSW,247,1.6,3.8,82,0.00,,,0.00,WUHU21623XXSP,2013-01-09 12:25:00,
2013-01-09 07:30:00,39.0,34.0,29.44,West,270,5.8,5.8,82,0.00,,,0.00,WUHU21623XXSP,2013-01-09 12:30:00,
2013-01-09 07:35:00,39.0,34.0,29.44,WNW,292,1.6,5.8,82,0.00,,,0.00,WUHU21623XXSP,2013-01-09 12:35:00,
2013-01-09 07:40:00,39.0,34.3,29.44,West,270,4.5,5.8,83,0.00,,,0.00,WUHU21623XXSP,2013-01-09 12:40:00,
2013-01-09 07:45:00,38.8,34.1,29.45,WNW,292,0.0,4.5,83,0.00,,,0.00,WUHU21623XXSP,2013-01-09 12:45:00,
2013-01-09 07:50:00,38.8,34.1,29.45,WNW,292,0.0,3.1,83,0.00,,,0.00,WUHU21623XXSP,2013-01-09 12:50:00,
2013-01-09 07:55:00,38.8,34.1,29.46,WNW,292,0.0,0.0,83,0.00,,,0.00,WUHU21623XXSP,2013-01-09 12:55:00,
2013-01-09 08:00:00,38.5,33.8,29.46,WNW,292,0.0,0.0,83,0.00,,,0.00,WUHU21623XXSP,2013-01-09 13:00:00,
2013-01-09 08:05:00,38.5,33.8,29.46,West,270,0.0,0.9,83,0.00,,,0.00,WUHU21623XXSP,2013-01-09 13:05:00,
2013-01-09 08:10:00,38.1,34.1,29.46,West,270,0.0,0.9,84,0.00,,,0.00,WUHU21623XXSP,2013-01-09 13:10:00,
2013-01-09 08:15:00,38.1,33.7,29.47,West,270,0.0,0.0,84,0.00,,,0.00,WUHU21623XXSP,2013-01-09 13:15:00,
2013-01-09 08:20:00,38.1,33.7,29.47,WSW,247,2.2,2.2,84,0.00,,,0.00,WUHU21623XXSP,2013-01-09 13:20:00,
2013-01-09 08:25:00,38.1,33.7,29.48,West,270,1.3,5.8,84,0.00,,,0.00,WUHU21623XXSP,2013-01-09 13:25:00,
2013-01-09 08:30:00,38.1,33.7,29.49,WNW,292,2.9,5.8,84,0.00,,,0.00,WUHU21623XXSP,2013-01-09 13:30:00,
2013-01-09 08:35:00,38.1,33.7,29.48,WSW,247,3.4,5.4,84,0.00,,,0.00,WUHU21623XXSP,2013-01-09 13:35:00,
2013-01-09 08:40:00,37.9,33.5,29.49,WNW,292,2.7,5.4,84,0.00,,,0.00,WUHU21623XXSP,2013-01-09 13:40:00,
2013-01-09 08:45:00,37.9,33.5,29.49,WNW,292,2.7,2.7,84,0.00,,,0.00,WUHU21623XXSP,2013-01-09 13:45:00,
2013-01-09 08:50:00,37.9,33.5,29.49,WSW,247,4.7,4.7,84,0.00,,,0.00,WUHU21623XXSP,2013-01-09 13:50:00,
2013-01-09 08:55:00,38.1,33.7,29.49,WSW,247,0.0,4.7,84,0.00,,,0.00,WUHU21623XXSP,2013-01-09 13:55:00,
2013-01-09 09:00:00,38.1,33.7,29.50,WSW,247,0.0,3.6,84,0.00,,,0.00,WUHU21623XXSP,2013-01-09 14:00:00,
2013-01-09 09:05:00,38.1,33.7,29.50,WSW,247,0.0,0.0,84,0.00,,,0.00,WUHU21623XXSP,2013-01-09 14:05:00,
2013-01-09 09:10:00,38.3,34.2,29.50,WSW,247,4.9,4.9,85,0.00,,,0.00,WUHU21623XXSP,2013-01-09 14:10:00,
2013-01-09 09:15:00,38.3,34.2,29.50,WSW,247,4.9,4.9,85,0.00,,,0.00,WUHU21623XXSP,2013-01-09 14:15:00,
2013-01-09 09:20:00,38.3,34.2,29.50,WSW,247,4.9,4.9,85,0.00,,,0.00,WUHU21623XXSP,2013-01-09 14:20:00,
2013-01-09 09:26:00,38.3,34.2,29.51,WSW,247,4.9,4.9,85,0.00,,,0.00,WUHU21623XXSP,2013-01-09 14:26:00,
2013-01-09 09:31:00,38.8,34.4,29.51,West,270,2.9,4.9,84,0.00,,,0.00,WUHU21623XXSP,2013-01-09 14:31:00,
2013-01-09 09:36:00,38.8,34.4,29.52,West,270,2.9,4.9,84,0.00,,,0.00,WUHU21623XXSP,2013-01-09 14:36:00,
2013-01-09 09:41:00,39.0,34.1,29.52,West,270,2.2,2.9,83,0.00,,,0.00,WUHU21623XXSP,2013-01-09 14:41:00,
2013-01-09 09:46:00,39.0,34.3,29.53,West,270,5.1,9.2,83,0.00,,,0.00,WUHU21623XXSP,2013-01-09 14:46:00,
2013-01-09 09:51:00,39.4,34.3,29.52,WNW,292,5.6,9.2,83,0.00,,,0.00,WUHU21623XXSP,2013-01-09 14:51:00,
2013-01-09 09:56:00,39.4,34.6,29.53,WNW,292,5.6,5.6,83,0.00,,,0.00,WUHU21623XXSP,2013-01-09 14:56:00,
2013-01-09 10:01:00,39.4,34.4,29.53,West,270,2.0,5.6,82,0.00,,,0.00,WUHU21623XXSP,2013-01-09 15:01:00,
2013-01-09 10:06:00,39.6,34.4,29.53,West,270,2.0,5.4,82,0.00,,,0.00,WUHU21623XXSP,2013-01-09 15:06:00,
2013-01-09 10:11:00,39.6,34.5,29.53,West,270,7.4,7.4,82,0.00,,,0.00,WUHU21623XXSP,2013-01-09 15:11:00,
2013-01-09 10:16:00,39.6,34.5,29.53,West,270,7.4,7.4,82,0.00,,,0.00,WUHU21623XXSP,2013-01-09 15:16:00,
2013-01-09 10:21:00,39.7,34.4,29.53,WNW,292,7.6,11.9,80,0.00,,,0.00,WUHU21623XXSP,2013-01-09 15:21:00,
2013-01-09 10:26:00,39.9,34.3,29.53,WSW,247,5.4,11.9,80,0.00,,,0.00,WUHU21623XXSP,2013-01-09 15:26:00,
2013-01-09 10:31:00,40.1,34.4,29.54,West,270,3.1,5.4,80,0.00,,,0.00,WUHU21623XXSP,2013-01-09 15:31:00,
2013-01-09 10:36:00,40.1,34.4,29.54,West,270,3.1,3.8,80,0.00,,,0.00,WUHU21623XXSP,2013-01-09 15:36:00,
2013-01-09 10:41:00,40.1,34.4,29.54,West,270,3.1,3.1,80,0.00,,,0.00,WUHU21623XXSP,2013-01-09 15:41:00,
2013-01-09 10:46:00,40.1,34.4,29.54,West,270,3.1,3.1,80,0.00,,,0.00,WUHU21623XXSP,2013-01-09 15:46:00,
2013-01-09 10:51:00,40.1,34.4,29.54,West,270,3.1,3.1,80,0.00,,,0.00,WUHU21623XXSP,2013-01-09 15:51:00,
2013-01-09 11:05:00,41.0,34.3,29.54,West,270,6.3,6.3,77,0.00,,,0.00,WUHU21623XXSP,2013-01-09 16:05:00,
2013-01-09 11:10:00,40.8,33.8,29.55,West,270,6.7,6.7,77,0.00,,,0.00,WUHU21623XXSP,2013-01-09 16:10:00,
2013-01-09 11:15:00,41.0,34.3,29.56,West,270,8.5,8.5,77,0.00,,,0.00,WUHU21623XXSP,2013-01-09 16:15:00,
2013-01-09 11:20:00,41.0,34.3,29.55,WSW,247,6.0,8.5,77,0.00,,,0.00,WUHU21623XXSP,2013-01-09 16:20:00,
2013-01-09 11:25:00,41.2,34.1,29.55,West,270,7.8,9.4,76,0.00,,,0.00,WUHU21623XXSP,2013-01-09 16:25:00,
2013-01-09 11:30:00,41.2,34.1,29.55,WSW,247,6.9,9.4,76,0.00,,,0.00,WUHU21623XXSP,2013-01-09 16:30:00,
2013-01-09 11:35:00,41.4,34.3,29.55,West,270,9.8,9.8,76,0.00,,,0.00,WUHU21623XXSP,2013-01-09 16:35:00,
2013-01-09 11:40:00,41.5,34.5,29.55,WNW,292,6.5,9.8,76,0.00,,,0.00,WUHU21623XXSP,2013-01-09 16:40:00,
2013-01-09 11:45:00,41.5,34.2,29.55,West,270,2.5,6.5,75,0.00,,,0.00,WUHU21623XXSP,2013-01-09 16:45:00,
2013-01-09 11:50:00,41.5,34.5,29.55,West,270,0.0,4.5,76,0.00,,,0.00,WUHU21623XXSP,2013-01-09 16:50:00,
2013-01-09 11:55:00,41.5,34.2,29.54,West,270,0.0,4.5,75,0.00,,,0.00,WUHU21623XXSP,2013-01-09 16:55:00,
2013-01-09 12:01:00,41.5,34.2,29.54,West,270,0.0,0.0,75,0.00,,,0.00,WUHU21623XXSP,2013-01-09 17:01:00,
2013-01-09 12:06:00,41.7,34.3,29.54,WNW,292,2.2,3.1,75,0.00,,,0.00,WUHU21623XXSP,2013-01-09 17:06:00,
2013-01-09 12:11:00,41.7,34.3,29.54,West,270,4.0,4.0,75,0.00,,,0.00,WUHU21623XXSP,2013-01-09 17:11:00,
2013-01-09 12:16:00,41.7,34.3,29.54,WNW,292,5.6,5.6,75,0.00,,,0.00,WUHU21623XXSP,2013-01-09 17:16:00,
2013-01-09 12:21:00,41.7,34.3,29.54,WNW,292,4.9,5.6,75,0.00,,,0.00,WUHU21623XXSP,2013-01-09 17:21:00,
2013-01-09 12:26:00,42.1,34.5,29.53,SW,225,2.5,4.9,75,0.00,,,0.00,WUHU21623XXSP,2013-01-09 17:26:00,
2013-01-09 12:31:00,42.1,34.7,29.53,SW,225,2.5,2.5,75,0.00,,,0.00,WUHU21623XXSP,2013-01-09 17:31:00,
2013-01-09 12:36:00,42.1,34.9,29.53,WSW,247,0.0,2.5,75,0.00,,,0.00,WUHU21623XXSP,2013-01-09 17:36:00,
2013-01-09 12:41:00,42.1,34.4,29.53,West,270,3.4,3.4,74,0.00,,,0.00,WUHU21623XXSP,2013-01-09 17:41:00,
2013-01-09 12:46:00,42.1,34.4,29.52,SSW,202,0.0,3.4,74,0.00,,,0.00,WUHU21623XXSP,2013-01-09 17:46:00,
2013-01-09 12:51:00,42.1,34.4,29.54,WSW,247,4.5,4.5,74,0.00,,,0.00,WUHU21623XXSP,2013-01-09 17:51:00,
2013-01-09 12:56:00,42.1,34.4,29.54,WSW,247,3.6,4.5,74,0.00,,,0.00,WUHU21623XXSP,2013-01-09 17:56:00,
2013-01-09 13:01:00,42.1,34.4,29.53,WNW,292,5.8,5.8,74,0.00,,,0.00,WUHU21623XXSP,2013-01-09 18:01:00,
2013-01-09 13:06:00,42.1,34.4,29.54,West,270,3.8,5.8,74,0.00,,,0.00,WUHU21623XXSP,2013-01-09 18:06:00,
2013-01-09 13:11:00,42.4,34.7,29.53,West,270,3.4,4.0,74,0.00,,,0.00,WUHU21623XXSP,2013-01-09 18:11:00,
2013-01-09 13:16:00,42.4,34.7,29.53,WNW,292,4.5,4.5,74,0.00,,,0.00,WUHU21623XXSP,2013-01-09 18:16:00,
2013-01-09 13:21:00,42.4,34.7,29.52,West,270,0.0,4.5,74,0.00,,,0.00,WUHU21623XXSP,2013-01-09 18:21:00,
2013-01-09 13:26:00,42.4,34.7,29.53,WSW,247,1.8,2.2,74,0.00,,,0.00,WUHU21623XXSP,2013-01-09 18:26:00,
2013-01-09 13:31:00,42.6,34.9,29.53,WSW,247,0.0,1.8,74,0.00,,,0.00,WUHU21623XXSP,2013-01-09 18:31:00,
2013-01-09 13:36:00,43.0,35.3,29.54,SW,225,0.0,2.5,74,0.00,,,0.00,WUHU21623XXSP,2013-01-09 18:36:00,
2013-01-09 13:41:00,43.0,35.3,29.54,SW,225,0.0,2.5,74,0.00,,,0.00,WUHU21623XXSP,2013-01-09 18:41:00,
2013-01-09 13:43:00,43.0,35.3,29.54,SW,225,0.0,0.0,74,0.00,,,0.00,WUHU21623XXSP,2013-01-09 18:43:00,
2013-01-09 13:44:00,43.0,35.3,29.54,SW,225,0.0,0.0,74,0.00,,,0.00,WUHU21623XXSP,2013-01-09 18:44:00,
2013-01-09 13:45:00,43.2,35.3,29.54,WSW,247,0.0,0.0,74,0.00,,,0.00,WUHU21623XXSP,2013-01-09 18:45:00,
2013-01-09 13:48:00,43.0,35.3,29.54,SW,225,3.4,3.4,74,0.00,,,0.00,WUHU21623XXSP,2013-01-09 18:48:00,
2013-01-09 13:49:00,43.2,35.4,29.54,West,270,2.2,3.4,74,0.00,,,0.00,WUHU21623XXSP,2013-01-09 18:49:00,
2013-01-09 13:54:00,43.0,35.3,29.54,West,270,0.0,3.4,74,0.00,,,0.00,WUHU21623XXSP,2013-01-09 18:54:00,
2013-01-09 13:59:00,43.2,35.1,29.54,WSW,247,3.1,4.3,73,0.00,,,0.00,WUHU21623XXSP,2013-01-09 18:59:00,
2013-01-09 14:04:00,43.2,35.1,29.54,West,270,2.9,6.0,73,0.00,,,0.00,WUHU21623XXSP,2013-01-09 19:04:00,
2013-01-09 14:09:00,43.2,35.1,29.54,West,270,5.6,6.0,73,0.00,,,0.00,WUHU21623XXSP,2013-01-09 19:09:00,
2013-01-09 14:14:00,43.2,35.1,29.54,SW,225,2.5,5.6,73,0.00,,,0.00,WUHU21623XXSP,2013-01-09 19:14:00,
2013-01-09 14:19:00,43.2,35.1,29.54,WSW,247,3.6,4.0,73,0.00,,,0.00,WUHU21623XXSP,2013-01-09 19:19:00,
2013-01-09 14:24:00,43.2,35.1,29.54,WNW,292,1.1,4.0,73,0.00,,,0.00,WUHU21623XXSP,2013-01-09 19:24:00,
2013-01-09 14:29:00,43.2,35.1,29.55,WSW,247,3.1,4.0,73,0.00,,,0.00,WUHU21623XXSP,2013-01-09 19:29:00,
2013-01-09 14:34:00,43.2,35.1,29.55,West,270,2.0,5.8,73,0.00,,,0.00,WUHU21623XXSP,2013-01-09 19:34:00,
2013-01-09 14:39:00,43.3,35.3,29.55,West,270,2.0,5.8,73,0.00,,,0.00,WUHU21623XXSP,2013-01-09 19:39:00,
2013-01-09 14:44:00,43.5,34.9,29.56,West,270,2.5,2.9,72,0.00,,,0.00,WUHU21623XXSP,2013-01-09 19:44:00,
2013-01-09 14:49:00,43.3,34.9,29.57,West,270,2.5,2.9,72,0.00,,,0.00,WUHU21623XXSP,2013-01-09 19:49:00,
2013-01-09 14:54:00,43.5,34.9,29.57,West,270,2.5,2.5,73,0.00,,,0.00,WUHU21623XXSP,2013-01-09 19:54:00,
2013-01-09 14:59:00,43.5,35.4,29.57,West,270,0.0,2.5,72,0.00,,,0.00,WUHU21623XXSP,2013-01-09 19:59:00,
2013-01-09 15:04:00,43.3,35.3,29.57,NE,45,0.0,3.4,73,0.00,,,0.00,WUHU21623XXSP,2013-01-09 20:04:00,
2013-01-09 15:10:00,43.3,35.3,29.57,WNW,292,0.0,3.6,73,0.00,,,0.00,WUHU21623XXSP,2013-01-09 20:10:00,
2013-01-09 15:15:00,43.2,35.1,29.57,SSW,202,3.6,3.6,73,0.00,,,0.00,WUHU21623XXSP,2013-01-09 20:15:00,
2013-01-09 15:20:00,43.2,35.1,29.57,West,270,4.0,4.0,73,0.00,,,0.00,WUHU21623XXSP,2013-01-09 20:20:00,
2013-01-09 15:25:00,43.2,35.1,29.57,West,270,0.0,4.0,73,0.00,,,0.00,WUHU21623XXSP,2013-01-09 20:25:00,
2013-01-09 15:30:00,43.2,35.1,29.58,West,270,0.0,4.0,73,0.00,,,0.00,WUHU21623XXSP,2013-01-09 20:30:00,
2013-01-09 15:35:00,43.2,35.1,29.58,West,270,2.9,3.4,73,0.00,,,0.00,WUHU21623XXSP,2013-01-09 20:35:00,
2013-01-09 15:40:00,43.3,35.6,29.58,West,270,0.7,2.9,74,0.00,,,0.00,WUHU21623XXSP,2013-01-09 20:40:00,
2013-01-09 15:45:00,43.5,35.4,29.59,West,270,2.2,2.9,73,0.00,,,0.00,WUHU21623XXSP,2013-01-09 20:45:00,
2013-01-09 15:50:00,43.5,35.4,29.58,WNW,292,0.0,2.5,73,0.00,,,0.00,WUHU21623XXSP,2013-01-09 20:50:00,
2013-01-09 15:55:00,43.7,35.6,29.59,WSW,247,2.2,2.2,73,0.00,,,0.00,WUHU21623XXSP,2013-01-09 20:55:00,
2013-01-09 16:00:00,43.9,35.8,29.59,WSW,247,0.0,2.2,73,0.00,,,0.00,WUHU21623XXSP,2013-01-09 21:00:00,
2013-01-09 16:05:00,43.7,35.6,29.59,West,270,0.0,0.0,73,0.00,,,0.00,WUHU21623XXSP,2013-01-09 21:05:00,
2013-01-09 16:10:00,43.7,35.6,29.59,West,270,0.0,2.5,73,0.00,,,0.00,WUHU21623XXSP,2013-01-09 21:10:00,
2013-01-09 16:15:00,43.7,35.6,29.60,South,180,0.0,2.5,73,0.00,,,0.00,WUHU21623XXSP,2013-01-09 21:15:00,
2013-01-09 16:20:00,43.5,35.4,29.60,South,180,0.0,0.0,73,0.00,,,0.00,WUHU21623XXSP,2013-01-09 21:20:00,
2013-01-09 16:25:00,43.7,35.9,29.60,SSW,202,0.0,0.0,74,0.00,,,0.00,WUHU21623XXSP,2013-01-09 21:25:00,
2013-01-09 16:30:00,43.5,35.8,29.60,West,270,0.0,0.0,74,0.00,,,0.00,WUHU21623XXSP,2013-01-09 21:30:00,
2013-01-09 16:35:00,43.5,35.4,29.61,West,270,0.0,0.0,73,0.00,,,0.00,WUHU21623XXSP,2013-01-09 21:35:00,
2013-01-09 16:40:00,43.2,35.4,29.61,WSW,247,0.0,0.0,74,0.00,,,0.00,WUHU21623XXSP,2013-01-09 21:40:00,
2013-01-09 16:45:00,43.0,35.3,29.61,SW,225,0.0,2.5,74,0.00,,,0.00,WUHU21623XXSP,2013-01-09 21:45:00,
2013-01-09 16:50:00,42.8,35.1,29.61,SW,225,0.0,2.5,74,0.00,,,0.00,WUHU21623XXSP,2013-01-09 21:50:00,
2013-01-09 16:55:00,42.6,34.9,29.62,SSW,202,0.0,0.0,74,0.00,,,0.00,WUHU21623XXSP,2013-01-09 21:55:00,
2013-01-09 17:00:00,42.6,34.9,29.62,SW,225,0.0,0.0,74,0.00,,,0.00,WUHU21623XXSP,2013-01-09 22:00:00,
2013-01-09 17:05:00,42.6,34.9,29.61,SSW,202,0.0,0.0,74,0.00,,,0.00,WUHU21623XXSP,2013-01-09 22:05:00,
2013-01-09 17:10:00,42.6,34.9,29.62,SSW,202,0.0,0.0,74,0.00,,,0.00,WUHU21623XXSP,2013-01-09 22:10:00,
2013-01-09 17:15:00,42.6,34.9,29.62,SSW,202,0.0,0.0,74,0.00,,,0.00,WUHU21623XXSP,2013-01-09 22:15:00,
2013-01-09 17:20:00,42.6,34.9,29.62,SSW,202,0.0,0.0,74,0.00,,,0.00,WUHU21623XXSP,2013-01-09 22:20:00,
2013-01-09 17:25:00,42.6,34.9,29.63,SSW,202,0.0,0.0,74,0.00,,,0.00,WUHU21623XXSP,2013-01-09 22:25:00,
2013-01-09 21:55:00,36.1,27.3,29.69,WNW,292,0.0,0.0,70,0.00,,,0.00,WUHU21623XXSP,2013-01-10 02:55:00,
2013-01-09 22:00:00,36.1,27.3,29.69,WNW,292,0.0,0.0,70,0.00,,,0.00,WUHU21623XXSP,2013-01-10 03:00:00,
2013-01-09 22:05:00,36.1,27.0,29.69,WNW,292,0.0,0.0,70,0.00,,,0.00,WUHU21623XXSP,2013-01-10 03:05:00,
2013-01-09 22:10:00,35.8,27.0,29.69,WNW,292,0.0,0.0,70,0.00,,,0.00,WUHU21623XXSP,2013-01-10 03:10:00,
2013-01-09 22:15:00,35.8,27.0,29.69,WNW,292,0.0,0.0,70,0.00,,,0.00,WUHU21623XXSP,2013-01-10 03:15:00,
2013-01-09 22:20:00,35.8,27.0,29.69,WNW,292,0.0,0.0,70,0.00,,,0.00,WUHU21623XXSP,2013-01-10 03:20:00,
2013-01-09 23:42:00,32.9,24.5,29.73,SW,225,0.0,0.0,71,0.00,,,0.00,WUHU21623XXSP,2013-01-10 04:42:00,
2013-01-09 23:47:00,32.7,24.3,29.73,SW,225,0.0,0.0,71,0.00,,,0.00,WUHU21623XXSP,2013-01-10 04:47:00,
2013-01-09 23:52:00,32.7,24.3,29.73,SW,225,0.0,0.0,71,0.00,,,0.00,WUHU21623XXSP,2013-01-10 04:52:00,
2013-01-09 23:57:00,32.7,24.3,29.74,SW,225,0.0,0.0,71,0.00,,,0.00,WUHU21623XXSP,2013-01-10 04:57:00,